Theta_e
319 322 326 328 329 329 329 328 328 328 330 331 332 333 332 332 335 336 336 336 336 337 338 337 334 331 329 325 323 323 322 322 322 322 322 322 322 321 320 320 320 320 322 323 324 326 331 334 335 335 330 325 325 324 324 324 324 325 325 325 325 324 321 319 317 319 327 330 326 324 327 329 329 330 331 330 330 331 331 331 331 331 332 332 332
320 320 322 325 327 329 329 328 328 328 328 329 331 333 331 330 332 332 334 336 337 337 336 332 329 327 325 324 323 323 323 323 322 322 322 322 321 321 321 321 321 321 323 325 326 330 334 335 336 336 331 326 326 325 324 324 324 324 324 324 325 325 323 321 319 319 325 329 328 327 329 330 330 330 329 326 325 326 328 329 330 330 330 331 332
321 320 320 323 325 328 329 329 328 328 328 329 331 332 330 328 328 330 334 336 336 335 332 329 326 325 324 324 323 323 323 323 323 323 323 322 323 323 322 322 321 322 326 329 330 333 335 336 335 333 329 327 327 326 324 323 323 322 322 323 324 324 324 323 321 321 322 324 327 329 331 331 330 330 329 326 324 323 324 326 326 327 325 326 328
321 319 319 321 324 326 327 328 328 328 329 329 330 330 328 326 327 330 334 335 334 332 329 327 326 325 324 324 324 324 324 324 323 323 323 323 323 323 322 321 322 325 330 333 332 332 335 335 332 330 328 327 327 326 325 323 322 321 320 321 322 323 324 324 322 322 323 324 326 330 332 333 331 330 331 329 329 330 328 325 322 321 319 319 321
321 320 319 320 322 324 325 327 327 328 328 329 329 328 327 326 326 329 331 331 331 329 328 327 326 326 324 324 324 324 324 324 323 323 323 322 322 322 322 321 322 327 331 333 333 333 334 332 329 329 328 326 327 327 326 324 322 321 319 317 318 320 322 324 323 322 323 323 324 330 332 333 333 331 331 329 329 332 331 329 326 322 319 319 318
321 320 320 319 320 322 323 324 326 327 327 328 327 327 325 325 325 326 328 328 329 328 328 327 326 325 324 324 324 324 324 324 324 324 323 323 324 323 322 322 323 328 331 332 334 333 332 330 328 328 326 325 324 324 326 325 323 321 318 315 314 315 317 322 324 323 323 324 324 329 331 331 333 333 332 331 330 331 331 330 329 327 326 324 322
320 320 320 319 319 321 321 323 323 325 326 327 326 325 324 324 324 325 325 326 327 328 328 328 327 326 324 323 324 324 324 325 327 327 326 325 325 324 323 323 325 328 330 332 333 333 331 328 326 326 324 322 321 319 320 321 320 317 315 312 312 312 312 316 321 323 324 326 325 327 332 331 331 332 333 334 333 333 331 329 329 329 329 328 328
320 321 321 320 319 320 321 322 322 323 324 325 326 325 325 324 324 324 325 325 326 327 328 327 327 326 324 324 325 325 325 326 327 328 328 327 326 325 324 325 328 329 329 331 334 333 329 326 326 324 322 320 319 318 316 315 314 313 311 310 310 310 310 310 314 320 323 326 326 326 330 329 328 330 332 334 334 334 333 330 328 327 328 329 329
320 321 321 321 320 319 320 321 322 322 322 323 324 324 324 324 324 324 324 325 326 327 327 327 327 325 324 324 326 327 327 328 329 328 327 327 326 325 326 326 328 329 330 330 331 330 326 325 324 320 317 315 315 315 314 312 311 310 308 308 307 308 309 309 309 313 318 324 327 328 329 327 325 328 331 333 333 333 332 329 327 325 327 328 327
320 321 321 321 320 320 319 320 322 322 322 323 323 324 324 324 324 323 323 324 326 326 326 327 326 325 324 325 327 328 329 330 332 329 325 325 326 325 327 328 326 327 327 327 326 324 323 322 318 314 312 312 311 311 311 310 308 306 305 305 305 305 305 307 308 309 312 320 326 328 329 327 325 326 330 333 333 333 331 329 327 325 326 326 325
319 320 321 321 321 321 319 319 320 322 322 322 323 325 325 324 324 323 321 322 324 326 326 326 325 325 325 326 327 329 330 331 333 331 325 323 324 325 327 328 327 327 326 325 324 321 319 316 313 311 310 310 310 310 309 307 305 304 304 304 304 304 304 304 305 307 308 315 323 325 327 326 324 325 329 333 333 332 329 327 326 325 325 326 325
317 319 320 321 321 321 320 319 319 320 321 322 322 323 325 325 325 324 321 320 322 324 325 325 325 325 325 328 326 327 332 333 332 331 327 324 323 324 326 326 327 327 325 325 324 322 318 314 311 310 308 308 308 308 306 305 304 304 304 304 304 304 304 304 304 305 305 309 316 320 323 324 323 324 328 330 329 328 324 323 323 323 326 328 329
316 318 319 319 321 321 321 319 319 318 319 320 320 321 323 324 324 324 321 320 321 323 324 324 325 325 326 328 326 327 332 333 333 330 327 325 323 324 324 324 323 323 323 324 324 323 319 313 312 308 305 305 305 305 304 304 304 304 304 304 305 305 305 305 304 304 304 305 308 312 317 320 320 322 325 325 325 322 319 319 318 322 327 329 332
316 317 318 319 319 320 321 320 319 318 318 318 318 319 320 321 322 322 321 320 321 322 323 324 324 325 326 326 324 326 331 333 333 331 328 325 322 322 322 321 320 318 318 320 321 321 318 313 311 306 304 304 304 304 304 304 304 305 306 306 307 307 307 306 306 305 305 305 305 306 309 313 316 319 321 321 320 317 315 316 314 318 325 328 331
316 316 317 318 318 319 320 320 320 319 318 318 317 317 317 317 318 319 319 318 319 320 323 324 324 325 325 324 322 326 330 331 332 330 327 324 320 319 319 319 318 315 313 314 315 315 314 310 308 304 303 303 303 304 304 304 305 307 307 307 307 308 308 307 307 307 307 306 305 305 305 307 310 313 317 316 314 311 310 311 310 314 320 322 327
316 316 316 317 317 318 319 319 320 320 319 318 317 317 316 316 315 316 316 315 315 317 321 322 323 323 323 323 321 326 331 331 330 327 324 322 319 317 316 316 315 313 310 311 311 311 310 308 305 304 304 304 304 304 305 306 307 307 307 307 307 307 307 307 307 308 308 307 306 305 304 304 305 307 311 312 310 307 305 307 307 309 312 316 320
315 316 316 316 316 317 317 318 319 319 320 319 318 317 316 315 315 315 314 313 313 314 316 317 320 321 321 323 323 326 332 332 329 326 322 320 317 315 315 314 313 311 309 310 310 309 307 305 304 304 304 304 304 305 306 307 307 307 307 307 307 307 307 307 307 308 308 308 307 306 306 305 304 304 305 307 306 305 304 305 304 304 306 308 311
316 315 315 315 316 316 316 316 317 318 318 319 319 318 317 316 316 315 314 313 313 313 313 314 316 318 319 323 325 327 331 333 331 326 322 320 317 315 314 313 311 310 309 309 308 307 305 305 304 304 304 304 304 306 307 307 307 306 306 306 306 306 307 307 307 307 307 307 307 307 307 306 305 305 304 305 304 305 304 304 304 303 303 303 305
315 316 316 315 315 316 316 316 316 317 317 318 318 318 318 317 316 315 315 314 313 313 313 313 313 315 316 321 326 328 330 332 332 330 326 322 320 317 314 312 310 308 308 308 307 306 305 305 304 304 304 304 306 307 307 306 306 306 306 306 306 306 306 307 307 307 307 307 307 307 307 307 306 306 306 306 305 305 305 305 304 304 304 303 303
315 315 315 315 315 315 316 316 316 316 316 316 317 318 318 318 317 316 315 314 314 313 313 313 312 313 314 318 324 327 330 331 332 331 328 324 321 317 314 312 311 307 306 306 306 305 305 305 304 304 304 304 306 307 306 306 306 306 306 306 306 306 306 306 307 306 307 307 307 307 307 307 307 307 307 307 306 306 306 306 305 305 304 304 303
315 315 315 315 315 315 315 315 315 316 316 316 316 316 317 317 318 317 316 315 314 314 313 313 312 312 312 315 321 326 329 330 330 329 324 320 317 315 313 312 311 307 305 305 306 305 305 304 304 304 304 305 306 306 306 306 306 306 306 306 306 307 306 306 307 306 306 307 306 307 307 307 307 307 307 307 307 306 306 306 305 305 305 304 304
314 314 315 315 315 315 315 315 315 315 315 316 316 316 316 316 317 317 317 316 315 314 313 313 313 313 312 313 317 323 328 328 326 323 318 315 314 312 312 311 310 307 304 305 305 305 305 304 304 304 304 305 306 306 306 306 306 306 306 307 307 307 307 307 307 307 307 307 307 307 306 306 306 306 306 306 306 306 306 306 306 305 305 305 304
314 314 315 316 316 316 315 315 315 315 315 315 315 316 316 316 316 317 317 317 316 315 314 313 313 313 312 312 314 320 324 324 321 318 316 315 313 312 311 310 309 306 304 305 305 305 305 304 304 304 304 306 306 306 306 306 305 306 307 307 308 307 307 307 307 307 307 307 307 306 306 306 306 306 306 306 306 306 305 305 305 305 305 304 304
314 314 315 316 316 316 316 315 315 315 315 315 315 315 316 316 316 316 316 317 316 316 315 314 313 314 313 311 312 317 321 322 319 317 315 313 312 311 310 310 309 305 304 305 305 305 304 304 304 304 304 305 306 306 306 305 306 307 308 308 308 308 308 308 307 307 307 307 306 307 307 306 306 306 306 306 306 305 305 305 305 305 305 304 305
314 314 315 315 315 315 316 315 315 315 314 315 315 315 315 315 316 316 316 316 316 316 316 315 314 314 314 312 311 314 318 320 319 316 314 312 311 310 310 309 308 305 304 305 305 305 304 304 304 304 304 306 306 306 305 305 306 307 308 308 308 308 308 308 307 307 307 307 307 307 306 306 306 306 306 306 306 306 305 305 304 304 305 305 305
315 314 314 314 315 314 314 315 315 315 314 314 314 315 315 315 315 315 316 316 316 316 316 316 315 314 314 313 312 313 316 318 318 315 312 311 311 311 310 309 308 306 305 305 305 305 305 304 304 303 304 305 306 306 305 305 306 307 307 308 308 308 308 308 307 307 307 307 307 307 306 306 306 306 306 306 306 306 305 305 305 306 307 306 306
315 315 315 314 314 314 314 315 315 314 314 314 314 314 314 315 315 315 316 316 316 316 316 315 315 315 314 314 313 313 315 316 315 313 312 311 311 312 311 310 309 307 305 305 306 305 305 304 303 303 304 305 305 305 305 305 305 307 307 307 307 307 307 308 308 307 307 307 307 306 306 306 306 306 306 306 306 305 305 305 306 309 309 308 310
315 315 315 315 315 315 315 315 315 315 315 315 315 314 314 315 315 315 316 316 316 316 317 316 316 315 315 314 314 313 313 313 313 312 312 312 312 312 312 311 309 308 306 305 305 306 305 304 303 303 304 304 305 305 305 305 305 306 307 307 307 307 307 307 307 307 307 307 307 307 306 306 306 306 306 306 306 305 305 306 307 308 308 310 313
315 315 315 315 315 315 315 315 315 315 316 316 316 315 315 315 316 316 316 316 316 317 317 318 317 317 315 314 314 314 313 312 311 311 312 312 312 312 312 312 310 308 307 305 305 306 306 304 303 304 304 304 305 305 305 305 305 306 306 306 306 306 306 307 307 307 307 307 307 307 306 306 306 306 306 305 305 305 305 307 307 307 309 311 313
315 316 316 315 315 315 315 316 316 316 315 316 316 316 316 316 316 317 318 318 318 318 318 318 318 318 317 315 314 314 314 313 313 312 312 312 312 313 313 313 311 309 307 306 306 306 306 305 304 304 304 304 304 304 305 305 304 305 306 306 306 306 306 306 306 307 306 306 307 307 306 306 306 306 305 305 305 305 305 307 307 307 310 313 313
316 316 316 316 316 315 315 315 316 316 315 316 316 317 317 317 318 318 320 321 321 321 321 321 320 319 319 317 316 315 314 314 314 314 313 313 313 313 313 313 312 310 309 307 306 305 306 306 304 303 304 303 303 304 304 304 304 304 305 305 305 305 305 305 306 306 306 306 306 306 306 306 306 305 305 305 305 304 304 305 306 306 309 311 312
315 316 316 315 315 315 314 314 315 316 316 316 317 317 318 318 318 319 321 322 323 324 324 323 323 321 321 320 319 318 317 316 315 315 315 314 313 313 313 313 313 311 309 308 306 305 305 305 304 303 303 303 302 303 303 304 304 303 304 305 305 305 305 305 305 305 305 306 306 306 306 306 306 306 305 305 304 304 304 303 304 305 305 309 313
314 314 314 314 314 314 314 314 314 315 316 316 317 317 318 319 320 320 321 323 325 326 326 325 325 324 324 323 322 322 320 319 318 317 316 315 315 314 314 313 313 312 310 309 307 306 305 305 304 303 303 302 302 302 303 303 304 303 303 304 304 304 304 304 304 305 305 305 305 305 305 305 305 305 305 304 304 304 304 303 304 303 302 307 313
313 313 313 313 313 313 314 314 314 315 316 316 316 317 318 319 320 321 322 323 325 326 327 327 326 326 326 325 325 324 323 322 322 321 320 318 317 316 315 314 314 313 310 309 308 307 305 304 305 304 303 302 302 302 302 303 303 303 303 303 303 304 304 304 304 304 304 304 304 305 305 305 305 305 305 304 304 303 303 303 302 301 301 305 310
313 312 312 312 312 313 314 314 315 315 316 316 317 317 318 319 320 321 322 323 325 326 327 327 327 327 327 326 326 326 325 324 324 323 323 322 320 318 317 316 315 314 311 309 309 308 306 304 304 304 303 302 302 302 302 302 302 303 303 303 303 303 303 303 304 303 304 304 304 304 304 304 305 304 304 304 304 303 303 303 301 300 300 303 305
313 312 311 311 312 313 314 314 315 315 315 316 317 317 318 319 320 321 322 323 324 326 327 327 327 327 327 326 326 326 326 325 325 325 325 324 322 321 319 317 316 316 313 312 310 308 307 305 304 304 303 302 302 302 301 301 302 302 302 302 302 302 303 303 303 303 303 303 303 304 304 304 304 304 304 304 303 303 303 302 301 299 299 301 302
310 310 310 310 311 312 313 314 314 314 314 314 316 317 318 319 320 321 322 323 324 325 325 326 326 326 326 326 326 326 326 326 326 325 325 325 323 322 321 319 318 317 315 314 312 310 308 306 304 303 303 302 301 301 301 301 301 301 302 302 302 302 302 302 302 302 302 303 303 303 303 303 303 304 304 304 303 303 302 301 300 299 299 300 301
308 308 309 309 310 311 312 313 313 313 312 311 313 315 317 319 320 320 321 322 323 324 324 325 325 325 325 326 325 326 325 325 325 325 325 325 324 323 322 320 319 318 317 316 315 313 310 307 305 303 302 302 301 301 301 301 300 300 301 301 302 302 302 302 302 302 302 302 302 302 302 302 303 303 303 303 303 302 302 301 299 298 298 299 299
307 308 308 308 309 310 311 311 311 310 309 309 310 311 313 315 317 319 320 321 322 322 322 323 323 323 324 324 324 325 325 325 325 324 324 324 324 323 322 321 321 320 319 319 317 315 312 309 307 304 303 302 301 300 300 300 299 300 300 301 301 301 301 301 301 302 301 302 302 302 302 302 302 303 303 303 302 302 301 300 299 298 298 297 297
306 306 307 308 309 309 310 310 310 309 309 309 309 309 309 310 313 314 316 319 320 321 321 321 321 322 322 322 323 323 323 324 324 323 323 323 323 322 322 321 321 321 321 320 318 316 314 312 309 306 304 302 301 300 299 299 299 299 299 300 301 301 301 301 301 301 301 301 301 301 301 301 302 302 302 302 302 302 301 300 299 298 297 296 296
307 306 307 307 308 308 309 309 309 310 310 310 310 309 310 311 311 311 312 314 315 316 317 318 319 320 320 320 321 321 321 322 322 322 321 321 321 321 321 321 321 321 320 320 319 318 316 314 312 309 305 303 301 300 299 299 298 298 299 299 300 300 300 301 301 301 301 301 301 301 301 301 301 301 301 302 302 302 301 300 299 298 297 296 295
307 307 307 307 307 307 307 307 308 309 309 309 310 310 311 312 313 313 313 312 312 312 312 312 314 315 316 317 317 318 319 319 319 319 319 319 319 319 319 319 319 320 320 319 319 318 317 316 314 311 308 304 302 300 300 299 298 298 298 298 299 299 299 300 300 301 301 301 301 301 301 301 301 301 301 301 302 302 301 301 299 298 297 296 295
306 306 306 306 306 306 306 306 306 307 307 307 308 308 309 310 311 312 313 312 311 310 308 308 308 309 310 311 311 312 313 314 315 315 315 315 316 316 317 317 317 318 318 318 318 318 317 316 315 313 310 306 303 301 300 299 299 298 298 298 298 299 299 299 300 300 300 300 301 300 301 301 301 301 301 301 301 301 302 301 300 299 298 297 296
306 306 306 306 306 306 305 305 305 305 306 306 306 306 306 306 307 308 308 309 308 308 307 307 307 307 306 306 306 307 307 308 309 310 311 311 312 313 314 315 315 316 316 316 317 317 317 317 316 315 312 308 304 302 300 299 298 298 298 298 298 298 298 299 300 300 300 300 300 300 301 301 301 301 301 301 301 301 302 302 301 299 298 297 296
306 306 306 306 306 306 305 305 305 305 305 305 305 305 305 305 305 306 306 306 307 307 307 307 306 305 305 304 304 304 304 304 305 305 306 307 308 310 311 312 313 313 314 314 315 315 315 315 315 314 312 310 307 304 301 299 299 299 298 298 298 298 298 299 300 299 299 300 300 300 300 300 301 300 300 300 301 301 301 302 301 300 299 298 296
305 305 305 306 306 306 306 305 305 305 305 305 305 306 306 305 305 305 305 305 305 305 305 305 304 304 303 303 303 303 303 303 303 303 304 304 305 306 307 309 310 311 311 312 312 313 313 313 313 312 311 311 308 304 302 300 299 298 297 298 298 298 299 299 299 299 299 300 300 300 300 300 300 300 300 300 300 301 301 302 302 301 301 300 298
303 304 304 304 305 305 305 305 305 305 305 305 306 306 307 306 306 306 305 304 304 304 304 303 303 303 302 302 302 302 302 302 302 302 302 303 303 303 304 305 307 308 309 310 310 311 311 311 311 310 310 309 308 304 302 301 299 298 297 297 298 297 298 298 299 299 299 299 300 300 300 300 300 300 301 300 300 301 301 301 301 302 302 301 300
302 303 303 304 304 304 304 304 304 304 304 305 305 306 306 306 306 306 305 305 304 304 304 303 303 303 303 303 302 302 302 301 301 301 301 301 302 302 302 303 303 305 306 307 308 308 309 309 309 308 307 307 306 304 303 301 299 299 298 297 297 297 297 297 298 298 299 299 299 300 300 300 300 301 301 301 301 301 301 301 301 301 302 302 302
302 302 303 303 303 304 304 304 304 304 303 303 304 304 304 304 304 305 305 305 304 304 304 304 304 304 304 304 303 303 302 302 301 301 301 300 301 301 301 301 301 302 303 304 305 306 306 307 307 307 306 306 305 304 302 301 300 299 298 298 297 297 297 297 297 298 298 299 299 299 299 300 300 300 301 301 301 301 301 301 300 300 300 301 302
302 302 302 303 303 303 304 304 304 303 303 302 303 303 303 303 303 303 303 303 303 303 303 303 304 304 304 304 303 303 303 303 302 302 301 301 300 300 300 300 300 300 301 301 302 303 303 304 305 305 305 305 304 303 302 301 300 299 298 297 297 297 297 297 297 298 298 298 299 299 299 299 300 300 300 300 301 301 301 301 300 300 300 301 301
301 302 302 303 303 303 303 303 303 302 302 302 302 303 303 302 302 301 302 302 302 302 302 302 302 303 303 303 303 303 303 302 303 303 303 302 301 300 300 299 299 299 299 300 300 300 301 301 302 303 303 304 303 303 302 300 299 299 298 297 297 297 296 297 297 297 297 298 298 299 299 299 299 300 300 300 300 300 300 300 300 300 300 300 300
Wind_Speed
4 8 10 12 13 12 12 14 16 18 18 17 16 16 15 15 14 14 12 10 9 9 8 8 7 7 7 7 6 6 6 6 6 6 7 7 7 5 4 3 3 4 4 5 5 6 6 5 6 6 6 6 6 7 7 7 7 7 7 8 8 9 9 9 10 11 11 11 10 9 9 8 8 7 7 6 6 7 6 5 5 5 5 4 5
3 7 10 11 14 13 12 13 14 16 18 18 17 16 15 14 14 12 11 10 10 10 9 9 9 8 8 7 6 5 5 4 4 4 5 5 4 4 3 2 2 3 4 5 5 6 5 5 5 5 4 5 4 5 6 7 6 6 6 6 7 7 8 8 9 10 10 10 9 9 9 8 7 6 5 5 6 6 5 5 5 5 4 4 4
2 5 8 11 13 13 13 13 13 15 17 18 17 16 15 13 12 11 12 12 11 11 11 10 10 9 8 7 6 5 4 3 3 2 2 3 2 2 1 1 2 3 4 5 4 5 5 5 5 4 2 3 3 4 6 6 6 6 6 5 5 6 6 7 7 8 9 9 9 9 9 8 6 5 4 4 4 5 5 4 4 4 3 4 4
2 3 7 10 13 14 13 13 14 14 16 17 16 16 14 13 12 11 12 13 12 12 12 12 11 10 8 7 6 5 3 2 2 2 2 3 3 2 1 0 1 3 3 3 3 4 5 5 4 2 1 2 3 4 5 5 4 4 4 4 4 4 4 5 6 7 7 7 8 8 7 7 5 4 3 2 2 2 3 3 3 3 3 3 3
2 2 6 10 12 14 14 14 14 14 16 16 16 16 15 14 12 13 13 13 13 12 12 12 11 10 8 7 6 5 4 4 3 4 4 4 4 3 2 2 2 3 3 4 3 3 5 4 2 2 2 2 3 4 4 3 3 2 1 1 1 1 3 4 4 5 5 5 6 6 6 5 4 3 3 1 1 0 1 2 3 3 3 3 4
3 3 5 9 12 14 14 14 14 15 15 16 16 15 16 15 14 13 14 14 14 13 13 12 11 10 8 7 6 5 5 5 5 5 5 5 4 3 3 3 4 5 4 4 4 4 6 5 2 2 1 1 1 2 3 3 3 2 1 2 2 2 2 3 4 4 4 3 4 5 4 3 3 3 3 2 1 1 2 2 2 2 2 2 3
5 4 4 7 11 13 14 15 15 15 15 16 15 15 15 15 15 14 14 14 14 14 14 13 11 10 9 7 6 5 5 5 5 5 5 5 5 4 5 5 6 6 5 5 4 6 7 5 2 1 2 3 3 3 3 4 4 5 4 4 4 4 4 5 6 6 5 4 4 4 4 3 4 3 3 2 0 1 2 2 2 2 2 1 1
6 6 5 6 9 12 14 15 16 15 15 16 16 15 15 15 15 15 15 15 14 14 14 13 12 11 9 7 6 5 5 5 5 5 5 6 6 6 6 7 7 7 7 7 7 8 7 5 4 4 4 4 5 5 5 6 6 7 6 5 5 5 5 6 7 8 7 7 6 5 5 3 4 5 3 2 1 1 2 3 3 3 2 2 1
7 7 6 6 8 11 13 15 16 16 16 16 16 16 15 15 15 15 15 15 15 15 14 13 12 12 10 8 7 6 5 6 6 6 6 5 6 7 7 7 8 8 8 9 9 10 9 7 7 7 5 5 6 7 7 7 7 6 5 5 5 5 6 7 8 9 9 9 9 8 7 5 5 6 5 3 4 4 4 5 5 3 1 1 1
8 8 7 7 7 10 12 14 15 16 17 17 17 17 16 15 15 16 16 16 16 16 15 14 13 12 11 9 8 6 6 6 6 7 7 6 6 7 7 7 8 8 9 9 10 10 10 9 9 7 6 5 6 7 6 6 5 4 3 3 2 3 4 6 8 8 9 11 12 11 10 8 7 7 6 5 5 5 6 6 5 4 3 3 4
8 8 9 8 7 9 11 14 15 16 17 17 18 18 17 16 16 16 16 17 17 17 16 15 15 14 12 11 9 7 8 8 8 8 7 6 5 6 7 7 7 8 8 8 8 9 10 10 8 7 6 5 5 5 5 4 2 1 0 0 0 1 2 3 5 6 8 12 13 13 13 11 8 8 7 6 6 7 8 7 6 5 4 4 4
7 9 9 9 8 9 10 12 14 16 16 17 17 17 18 18 17 16 16 16 17 17 17 16 16 15 14 12 10 9 10 10 11 12 10 8 6 5 5 6 7 8 8 8 9 9 10 9 7 6 5 4 4 4 4 3 2 2 1 1 1 1 1 1 2 4 8 12 14 14 14 12 10 8 8 7 7 7 8 7 6 4 3 4 3
6 9 10 9 9 9 10 11 13 15 16 17 17 17 18 18 18 17 17 17 17 17 17 17 17 16 15 14 11 10 13 12 13 14 12 10 7 6 6 7 8 9 9 10 11 11 12 10 8 6 4 4 3 3 4 3 3 3 2 1 1 1 1 1 2 4 6 9 11 13 14 13 11 10 9 8 7 7 6 5 5 4 2 1 3
4 8 9 9 9 10 10 11 13 14 16 17 17 17 18 18 18 18 18 17 17 17 17 17 17 17 16 16 13 12 14 14 15 16 13 11 9 8 8 9 10 11 11 12 13 13 13 11 8 5 4 4 4 4 5 4 3 2 2 2 2 2 1 1 2 4 4 5 7 10 11 12 12 12 11 10 10 9 8 6 6 7 7 6 4
4 6 8 9 10 11 11 12 13 14 15 17 17 17 18 18 18 18 18 18 18 18 17 17 18 17 17 16 14 15 16 17 18 17 15 12 10 9 9 10 11 13 13 13 14 13 12 10 7 6 5 5 6 6 5 4 3 2 2 2 2 2 1 2 3 4 4 3 4 6 8 10 11 12 12 12 12 10 8 8 7 8 10 10 9
7 7 7 8 9 11 12 13 14 14 15 16 18 18 18 19 19 19 18 18 18 18 18 18 19 18 18 17 15 17 18 19 20 18 15 12 10 10 10 10 11 13 13 12 13 12 10 8 7 6 7 7 8 7 6 5 4 3 2 2 2 2 2 3 4 4 4 3 4 5 7 8 10 12 13 13 12 10 7 7 7 8 10 12 12
9 9 8 8 9 11 12 13 14 15 16 17 18 18 19 19 20 19 19 18 17 17 18 19 19 19 18 18 17 18 19 20 21 18 15 13 12 10 10 10 11 13 12 11 11 9 8 8 7 7 8 9 9 7 6 6 5 4 3 3 3 3 4 5 6 5 4 4 5 6 7 8 10 11 13 13 13 10 7 6 6 7 8 10 11
11 11 11 10 10 11 12 14 15 16 17 18 18 19 19 20 20 20 19 18 18 17 18 18 19 18 18 18 18 19 20 20 20 19 17 15 13 11 10 10 11 12 11 9 8 8 8 8 8 8 10 10 9 8 7 7 5 5 4 4 4 5 6 6 6 6 5 5 6 7 7 9 10 11 12 12 12 11 8 7 7 7 7 9 9
12 13 13 13 12 12 13 14 15 16 17 18 19 20 20 21 21 22 21 19 19 18 18 18 19 19 19 19 18 19 20 20 20 20 19 17 15 13 11 10 11 11 11 9 8 8 9 9 9 10 11 11 10 9 8 7 6 5 4 5 5 6 6 6 7 6 6 7 7 8 8 9 10 11 11 11 12 11 10 9 8 9 8 9 9
13 14 14 14 14 14 14 15 15 16 17 18 19 20 21 21 22 23 22 21 20 19 19 19 19 19 20 20 20 20 20 21 21 21 20 19 17 15 12 10 11 12 12 10 9 9 10 10 11 12 12 11 10 9 8 7 6 5 5 6 6 6 7 7 7 6 7 7 8 8 9 9 10 11 11 11 12 12 12 11 10 9 9 9 9
15 14 14 15 16 16 16 16 16 16 17 18 18 20 21 22 22 23 23 23 22 21 20 20 20 20 21 21 21 21 21 22 22 21 21 19 17 15 13 11 11 13 13 11 10 10 11 11 12 13 12 11 10 9 9 7 6 6 6 6 6 7 7 7 7 7 7 8 8 8 9 9 10 10 11 11 11 11 12 11 11 10 10 10 9
16 15 14 14 16 17 17 16 16 16 17 18 19 19 20 22 23 24 24 24 24 24 22 22 22 21 22 23 23 23 23 24 23 22 21 18 17 15 13 12 12 14 14 12 11 11 11 12 13 13 13 12 11 10 9 8 7 6 6 6 6 7 7 7 7 8 8 8 9 9 9 9 9 10 10 10 10 11 11 11 11 11 11 10 10
17 15 14 13 13 15 16 17 17 17 18 19 19 19 20 21 22 23 25 25 25 25 25 24 23 23 23 24 25 25 25 25 24 23 21 20 19 17 15 13 13 15 15 13 11 12 12 13 14 14 13 13 11 11 10 8 8 7 6 6 6 7 7 7 8 8 9 9 9 9 10 10 10 10 10 10 9 10 10 11 11 11 11 10 10
18 16 14 14 14 13 14 16 17 17 19 20 20 21 20 21 22 23 24 25 26 26 26 26 25 25 25 25 26 27 27 27 26 24 23 22 20 19 16 15 15 16 16 14 13 13 13 14 14 14 14 13 12 11 10 9 8 7 7 7 7 7 7 7 8 8 9 9 10 10 10 10 10 11 11 10 9 9 10 10 10 11 11 11 10
18 17 16 14 15 14 13 13 15 18 19 20 21 22 21 21 22 22 24 25 26 27 27 27 28 28 27 26 26 27 28 28 27 26 25 23 22 20 18 16 16 17 17 16 14 14 14 15 15 15 15 13 13 12 11 10 8 8 8 8 7 7 7 7 7 8 9 9 10 10 11 11 11 11 12 11 10 10 10 10 10 11 11 10 10
18 18 17 16 16 15 14 13 14 16 18 20 20 21 22 23 23 23 23 24 25 27 27 29 29 29 29 28 27 28 29 30 29 28 27 25 24 22 19 17 18 18 19 17 16 15 15 16 15 16 16 14 14 13 12 11 9 9 9 9 8 7 7 7 7 8 9 9 10 11 11 11 11 11 12 12 11 11 11 10 10 10 10 9 9
18 19 19 19 19 18 17 16 16 16 16 18 20 21 23 24 24 24 24 25 25 26 26 28 29 30 30 29 29 29 30 31 31 30 28 26 25 23 21 19 19 20 20 19 17 16 16 16 17 18 17 16 15 14 13 12 11 10 11 10 9 8 8 7 7 8 8 9 10 11 11 11 12 12 12 12 12 11 11 10 8 8 9 8 6
18 19 19 20 20 20 19 19 18 17 17 17 19 21 22 24 25 25 25 25 25 26 26 25 26 29 31 31 31 31 31 32 32 31 30 28 26 25 23 21 20 21 21 21 19 18 17 17 18 20 19 18 17 16 15 14 13 12 12 11 10 9 9 8 7 7 8 9 10 10 11 11 12 12 12 12 12 12 11 9 7 6 7 6 3
16 17 18 19 19 19 20 21 20 19 18 17 18 19 22 24 25 26 26 26 26 26 26 25 24 26 30 32 32 32 32 33 33 32 31 29 28 27 26 23 21 22 22 22 21 19 19 19 20 21 21 20 18 17 17 16 15 14 13 12 11 10 10 9 8 8 8 9 10 10 10 11 12 12 12 13 13 12 11 9 8 6 5 5 4
14 14 15 16 17 18 18 20 20 19 18 18 18 18 20 23 25 26 27 28 28 27 27 27 25 25 27 30 32 32 33 34 34 33 32 31 30 29 28 26 23 23 23 23 23 21 20 20 21 23 23 21 20 19 19 18 17 15 14 14 13 12 11 10 9 9 8 9 10 10 10 11 12 12 13 13 13 12 12 10 8 6 5 5 5
12 13 12 12 12 14 15 16 17 18 18 17 17 17 18 21 23 26 27 28 28 28 28 28 27 26 25 26 29 31 32 34 34 34 33 32 31 30 30 28 26 24 24 24 24 23 22 21 22 23 23 22 21 21 21 20 18 17 16 16 15 14 13 12 11 10 9 10 10 10 10 11 11 12 13 13 13 13 13 11 9 8 7 6 6
8 10 10 9 8 9 11 13 14 15 16 16 16 16 16 18 20 23 26 28 28 29 29 29 28 27 26 25 26 28 29 31 32 33 33 33 32 30 29 29 27 25 25 25 25 24 23 22 23 24 24 24 23 22 23 22 20 19 18 18 17 16 15 14 13 12 11 11 11 10 10 11 11 12 13 13 13 13 13 13 12 12 10 8 7
3 5 6 8 9 8 8 11 12 12 13 13 13 13 14 15 18 21 24 26 27 28 29 29 29 27 27 26 26 26 27 28 29 31 31 31 31 30 29 29 28 27 26 25 25 25 25 24 24 25 26 26 26 25 25 24 23 21 20 20 19 17 16 16 15 13 13 12 11 11 10 10 11 11 12 12 13 14 14 15 14 13 12 11 10
4 4 6 8 10 10 7 7 10 9 10 11 11 11 12 13 15 18 21 24 26 27 27 28 28 27 27 27 27 26 26 27 28 30 30 30 31 31 29 28 28 28 27 26 25 25 26 26 25 25 27 28 28 27 27 26 25 24 23 22 21 19 18 17 16 15 14 13 12 12 11 10 10 11 12 12 13 14 14 15 12 11 13 14 14
10 9 8 7 7 9 7 4 6 7 7 8 9 10 10 11 13 16 19 22 24 25 25 26 26 27 28 28 27 26 26 27 28 30 31 31 31 31 30 28 28 29 28 27 26 27 27 27 27 27 28 29 29 28 28 27 26 25 24 23 22 21 21 20 18 17 16 15 14 13 12 11 11 11 12 12 13 14 14 14 12 12 14 15 16
15 13 9 7 6 7 7 6 5 5 5 6 7 8 9 11 12 14 16 19 21 23 23 23 24 26 27 27 27 27 27 27 29 30 31 31 32 32 31 29 30 30 28 27 27 28 28 28 28 28 29 30 31 30 29 29 28 27 26 25 24 23 23 22 20 19 18 17 16 15 13 11 12 12 12 12 13 14 14 14 13 14 15 17 16
14 12 9 8 6 7 8 8 7 7 7 6 7 7 9 10 11 13 14 15 18 19 20 21 22 23 25 26 27 27 27 28 29 30 30 31 32 32 32 31 31 29 28 28 29 29 29 29 29 29 29 30 32 32 31 30 29 28 28 27 26 25 25 24 22 20 19 19 18 16 14 13 13 12 12 12 13 14 14 14 14 15 16 18 17
7 7 5 5 6 7 8 9 9 9 8 7 7 7 8 10 11 12 12 13 15 17 18 19 20 21 23 24 25 26 27 28 28 29 30 31 31 32 32 32 30 29 29 30 30 31 31 31 31 30 29 30 32 33 32 31 30 30 29 28 28 28 27 26 24 22 22 21 19 17 16 15 14 13 12 13 14 15 15 15 15 16 16 18 18
4 2 0 2 4 5 6 8 8 7 6 6 7 8 8 8 9 10 11 11 13 14 16 17 18 20 21 22 23 24 26 27 28 28 29 31 32 32 33 33 32 31 32 32 32 33 32 32 32 31 30 30 31 33 32 31 31 31 30 30 30 30 29 27 26 25 24 23 21 20 18 16 15 15 14 14 15 15 16 16 15 16 16 17 17
8 7 4 3 3 2 2 4 3 4 4 5 6 6 6 7 8 9 9 10 11 13 13 15 16 17 19 20 21 22 23 25 26 27 29 30 31 32 33 33 34 34 34 34 34 34 34 33 33 32 31 31 31 33 33 32 32 32 31 31 31 30 30 30 29 27 26 25 24 21 19 19 19 17 15 15 15 16 17 16 16 16 17 17 17
15 14 11 8 5 3 2 1 2 2 2 3 3 4 4 3 3 4 5 7 8 10 11 13 15 16 17 18 19 20 21 22 23 25 27 28 30 31 31 32 33 34 35 35 35 35 35 34 33 33 32 32 32 34 35 34 34 33 33 32 32 32 32 32 31 29 29 28 26 23 22 22 21 19 17 17 16 17 17 17 17 17 18 18 17
25 22 21 18 14 11 9 7 4 2 2 3 4 4 4 5 5 4 3 2 1 2 4 7 10 12 14 15 17 18 19 20 21 22 24 25 27 28 29 30 32 33 34 35 35 35 35 34 34 34 33 33 33 34 36 37 37 36 35 33 32 33 34 33 32 32 32 31 28 26 26 25 24 22 20 19 18 18 18 18 18 18 19 18 17
30 29 27 25 23 21 18 14 10 6 6 7 7 7 5 4 3 3 3 3 3 2 1 1 4 5 7 9 12 14 16 17 19 20 21 22 23 25 27 28 30 32 33 34 35 35 36 36 35 35 34 34 33 34 36 38 39 37 34 32 32 31 31 34 35 35 35 33 31 30 29 28 26 24 23 21 20 19 19 19 19 19 19 18 17
34 33 32 31 29 28 25 22 18 15 14 14 13 12 10 7 4 3 2 2 3 3 2 2 2 1 1 4 6 8 10 12 14 16 18 19 20 21 24 26 28 30 31 33 34 34 35 36 36 36 35 35 35 36 37 38 39 38 35 31 28 25 27 32 35 36 35 35 34 33 31 30 29 27 26 24 22 21 20 21 20 20 20 19 18
35 35 34 34 33 32 30 27 24 23 22 21 20 18 17 15 11 8 6 4 5 6 6 7 6 6 5 4 4 4 5 6 8 10 12 14 16 18 20 23 25 27 29 31 32 32 34 35 35 36 36 36 36 37 38 39 40 41 39 34 26 24 29 32 31 30 33 34 34 33 33 32 31 30 28 25 24 23 22 22 21 20 21 20 19
35 34 33 33 33 32 32 30 29 27 27 27 26 25 25 23 20 16 13 11 10 11 11 11 10 10 10 8 7 5 4 3 3 4 6 8 11 14 16 19 22 24 27 29 30 30 32 33 34 35 36 36 36 38 39 39 40 42 43 42 37 33 31 30 27 25 27 31 32 32 32 32 32 31 29 27 26 26 24 23 21 21 21 21 20
33 32 31 31 31 31 31 30 29 29 29 28 27 27 28 27 26 23 20 17 15 14 13 11 11 11 11 11 10 9 7 6 5 3 3 4 6 8 11 15 18 21 24 26 28 29 30 30 32 33 34 34 35 38 40 40 41 43 43 44 45 42 36 32 30 26 23 26 29 30 31 31 30 30 29 28 28 27 26 24 23 23 22 22 21
30 29 29 29 28 28 28 27 27 27 26 26 26 26 27 26 25 24 22 21 19 16 14 13 12 12 12 12 12 12 10 9 8 7 6 4 3 4 7 10 13 17 20 23 25 26 27 28 30 31 32 33 35 38 39 40 42 44 43 43 44 45 43 40 38 33 28 27 28 29 30 29 29 29 28 27 28 27 26 25 24 24 23 22 22
27 26 26 26 25 25 24 24 24 25 24 23 23 24 25 24 23 22 21 21 19 17 16 14 14 13 13 13 12 12 11 10 10 9 8 8 7 5 5 6 8 11 15 19 22 23 25 27 28 29 31 32 34 36 38 40 41 43 43 44 44 44 45 43 41 38 36 33 31 31 31 30 31 31 29 28 28 27 26 26 25 25 25 24 23
24 23 23 22 22 21 20 20 21 22 21 21 21 23 23 22 22 21 20 19 18 17 16 15 15 15 15 14 13 12 12 11 10 9 8 8 7 7 7 6 6 8 11 14 17 20 22 25 26 28 29 31 32 34 36 38 40 42 43 44 45 45 45 45 43 40 39 37 35 35 35 33 34 34 31 30 29 28 27 26 26 26 26 26 24
21 20 20 20 19 19 19 19 20 19 19 19 20 21 21 21 21 20 19 18 17 16 16 16 16 16 16 16 15 14 13 12 11 11 10 9 8 7 7 8 8 8 9 11 13 15 18 21 23 26 28 30 31 32 34 36 38 40 42 44 46 46 46 46 45 43 43 42 40 39 38 37 37 36 34 32 30 29 28 28 27 27 26 27 26
Wind_Direction
150 165 181 182 188 192 194 198 199 202 201 202 198 195 193 191 191 192 193 189 180 171 168 166 161 149 149 149 146 140 133 130 131 135 137 142 144 143 138 124 97 75 63 56 55 62 71 78 76 73 72 78 99 110 108 105 100 96 95 96 97 96 95 96 97 103 106 101 101 104 104 103 106 110 112 110 102 90 84 87 95 101 106 111 108
113 164 185 186 189 191 195 197 200 202 203 205 202 199 199 198 198 199 195 185 175 171 172 167 159 155 158 159 157 149 142 142 144 148 149 155 158 159 150 122 98 87 74 61 61 84 101 107 105 97 73 67 97 115 109 106 100 93 89 90 93 96 97 98 101 106 111 115 116 109 103 98 95 100 104 105 100 95 90 87 89 86 88 93 90
61 160 185 191 191 192 194 196 198 199 202 205 204 205 204 204 202 197 190 183 180 177 174 168 165 167 170 169 169 163 158 163 167 177 177 187 194 199 168 84 76 78 74 72 89 119 125 132 133 119 71 75 117 128 118 108 101 93 83 82 88 94 100 104 109 114 118 124 124 115 108 99 90 93 96 94 94 96 95 89 89 79 69 71 68
349 171 185 194 194 194 196 196 198 197 200 205 205 209 209 205 198 191 187 186 186 181 177 173 175 178 180 179 178 176 179 195 210 228 233 235 235 239 230 138 83 84 94 105 119 140 148 150 149 138 94 110 150 150 133 119 106 95 78 75 80 89 101 110 121 127 132 136 133 125 116 104 92 101 106 94 86 92 98 96 93 78 63 58 50
291 229 194 198 198 197 199 198 200 200 200 205 206 208 211 208 199 190 186 189 190 186 182 181 183 186 189 189 187 189 196 211 226 238 246 249 246 240 217 196 144 129 140 144 139 163 179 183 177 164 142 123 166 170 159 150 130 107 60 38 54 102 113 125 136 143 156 159 148 139 130 113 101 109 117 124 146 206 153 131 116 99 84 68 55
257 257 213 207 205 201 200 201 203 203 203 205 207 208 209 208 203 197 192 192 192 189 188 190 193 196 200 200 201 206 212 220 228 237 243 243 236 219 204 184 157 155 163 163 160 194 208 212 190 154 183 180 201 197 190 194 202 232 287 298 283 246 191 168 166 171 183 188 170 150 143 134 128 122 110 113 148 246 235 211 178 142 120 86 64
242 252 237 219 214 208 203 203 206 207 207 207 209 211 211 211 208 205 202 200 198 195 194 197 200 204 208 211 216 223 234 238 237 240 237 226 213 197 189 169 158 165 173 178 185 210 220 228 211 180 251 258 268 270 250 246 252 267 277 275 264 250 228 197 187 186 189 201 210 176 163 171 166 153 124 121 124 285 268 262 239 196 166 149 129
232 242 244 236 223 217 211 206 209 211 212 212 212 214 216 218 216 213 211 209 207 205 203 204 205 209 210 211 219 230 248 256 250 245 239 222 202 188 182 168 162 170 180 187 199 220 234 246 245 252 273 284 285 285 284 281 281 284 281 272 257 244 232 215 204 197 193 195 217 217 197 185 180 175 155 180 225 254 265 278 270 246 200 177 185
228 236 241 247 233 225 221 214 213 214 215 216 217 218 220 221 223 222 221 218 214 212 212 213 213 215 211 208 216 228 244 251 246 243 241 220 193 180 174 174 174 181 194 204 217 235 250 258 259 269 279 287 285 283 288 291 291 292 287 277 258 241 230 222 216 206 199 194 208 225 219 207 187 182 173 195 219 232 253 280 285 275 244 202 243
224 228 238 247 246 234 226 223 220 220 219 219 220 221 223 224 227 228 227 225 222 220 218 218 219 219 215 212 217 227 239 237 234 238 234 207 181 170 165 181 191 195 209 222 238 250 260 268 273 282 287 283 280 281 287 291 293 295 293 286 261 240 224 222 222 212 201 197 208 218 219 217 196 187 181 190 211 226 248 269 280 286 292 300 299
222 224 233 238 248 248 233 228 227 227 226 224 224 223 226 227 228 230 230 227 225 225 224 223 222 221 218 218 217 217 230 227 226 235 230 212 193 175 173 195 204 210 223 233 251 267 273 278 288 294 293 288 279 279 282 279 277 283 276 326 114 175 201 212 218 207 200 200 210 218 221 224 212 199 190 190 206 223 243 253 265 289 299 308 311
227 224 227 232 241 251 246 236 231 232 233 233 231 228 229 231 231 230 231 228 226 226 226 226 223 224 221 222 220 210 219 219 224 233 231 229 226 209 207 221 224 230 243 251 260 274 280 283 295 297 291 287 277 265 255 237 196 173 150 145 120 122 131 154 179 186 198 202 211 221 227 231 224 211 204 208 223 236 249 253 258 276 309 320 316
236 229 228 229 233 245 251 246 239 236 238 239 239 237 234 234 234 232 231 228 226 227 226 227 225 227 225 227 225 210 217 217 224 232 233 237 241 245 250 251 251 252 255 260 264 270 276 282 289 288 280 274 260 234 208 190 173 173 174 178 184 169 164 155 155 178 198 206 212 224 231 235 234 225 224 233 244 253 259 263 253 228 207 282 278
254 240 237 233 232 237 245 249 247 243 241 241 242 242 241 239 238 235 233 229 226 227 227 228 229 230 230 232 226 211 215 219 224 231 236 241 246 255 263 267 271 271 265 263 263 263 267 271 271 263 256 246 219 197 182 176 175 182 196 200 209 202 202 193 187 201 209 213 217 228 234 238 240 237 242 248 254 263 266 267 251 215 194 195 221
276 254 246 241 236 235 238 242 246 248 247 245 244 244 244 243 242 239 237 234 230 228 228 229 231 233 234 235 225 210 213 221 228 233 238 245 251 259 268 276 282 279 272 266 262 258 260 258 246 232 221 211 194 184 176 177 184 188 205 216 229 228 225 218 218 224 222 220 223 230 235 238 240 241 248 255 260 269 274 267 247 222 212 209 215
283 271 257 249 242 238 236 237 241 246 250 249 247 246 246 245 244 243 241 239 236 232 230 230 231 233 235 235 224 210 212 222 231 235 237 246 255 264 275 281 284 279 272 267 262 257 256 249 228 213 203 195 188 185 181 182 186 189 204 222 252 269 268 252 246 247 240 226 222 224 229 233 237 240 246 257 267 278 282 266 246 234 229 227 229
286 278 269 258 248 243 237 236 237 239 245 248 249 248 248 247 244 243 243 242 241 237 235 235 234 233 233 232 224 213 214 222 233 237 240 249 257 266 277 279 277 274 270 264 258 251 244 237 221 207 196 191 191 188 186 188 190 197 210 226 246 262 264 265 267 273 270 248 228 225 226 229 234 240 246 256 267 275 276 264 255 247 241 240 243
287 281 275 265 255 249 244 240 238 237 239 242 245 248 250 249 245 243 243 243 242 240 239 240 238 236 233 231 226 218 219 223 232 239 243 250 257 266 271 271 267 264 265 259 247 239 232 228 215 200 194 192 194 189 189 192 197 208 221 236 245 251 255 260 266 272 274 262 247 241 238 236 238 242 248 255 264 269 266 260 255 252 248 250 253
283 279 276 270 262 254 249 244 242 240 239 240 241 244 248 250 248 244 242 242 241 241 241 242 242 241 237 233 228 224 224 226 231 240 246 251 256 264 267 264 260 256 255 248 235 229 223 219 207 196 195 196 195 190 191 197 207 222 237 249 254 257 260 262 265 267 266 263 259 256 252 250 249 251 254 257 263 268 268 263 258 258 256 256 259
284 275 271 269 266 258 252 249 246 244 244 243 242 242 244 247 248 247 244 241 240 239 240 241 243 243 241 237 232 227 227 229 234 241 247 252 256 262 267 263 258 254 248 240 231 224 217 211 202 197 198 199 197 193 197 206 219 235 250 257 261 263 265 268 270 269 264 264 263 261 259 259 258 259 262 263 266 269 272 271 266 265 264 264 264
291 279 268 263 261 260 256 252 250 248 247 246 245 244 243 244 245 246 245 243 241 239 238 238 240 240 240 238 235 230 227 229 234 241 248 253 258 263 266 264 256 251 246 240 233 224 218 209 201 199 201 202 199 197 204 214 226 240 251 256 260 263 266 269 272 271 268 269 267 265 263 262 262 263 265 266 269 270 272 274 272 270 267 266 265
297 289 278 266 260 260 260 257 253 250 250 249 247 246 245 244 242 243 244 244 243 241 239 237 238 237 237 236 236 233 230 233 237 244 252 258 263 266 267 263 253 248 245 241 235 229 225 213 204 203 206 207 203 204 211 221 231 242 248 252 257 260 265 266 269 271 271 272 272 272 271 269 269 268 269 270 271 272 272 272 272 271 268 265 264
303 299 295 286 274 264 262 261 257 253 251 251 250 248 246 245 243 241 241 243 244 243 241 238 237 237 235 235 235 235 235 238 243 248 256 261 266 267 266 259 248 245 244 241 236 233 229 219 211 209 212 212 207 209 216 226 234 240 244 248 253 256 260 263 265 268 270 272 274 276 276 278 278 276 277 277 277 277 276 275 273 272 271 267 264
309 306 301 295 289 279 269 265 262 256 251 251 251 249 247 246 245 242 241 241 242 243 242 240 238 238 237 236 235 235 237 240 244 248 253 257 261 262 261 254 244 242 242 239 237 237 231 224 218 216 218 216 213 214 221 229 236 240 242 243 247 252 255 260 264 265 267 269 271 274 276 278 280 282 282 282 284 282 282 281 278 276 273 270 268
310 308 305 301 297 296 288 278 270 261 255 252 252 252 251 249 246 244 242 241 241 242 241 240 239 238 238 237 235 235 237 240 243 246 249 253 255 257 257 252 243 240 241 238 236 238 235 230 224 222 224 220 218 219 223 231 235 238 239 239 241 245 248 254 261 263 265 266 267 269 272 275 278 282 283 286 288 288 290 288 285 282 276 273 273
305 306 308 307 302 301 300 295 284 275 266 259 255 255 254 253 250 248 247 244 241 241 240 240 238 239 239 238 236 235 236 239 243 246 248 250 252 254 254 250 244 241 241 239 237 238 238 235 227 227 229 224 222 222 226 231 234 235 237 237 237 240 242 245 251 257 261 263 265 266 268 271 274 278 282 286 289 291 293 293 292 287 282 280 277
299 301 305 305 301 300 300 297 292 289 282 272 263 257 256 256 255 253 251 249 247 244 242 241 240 240 240 239 237 236 237 240 242 246 247 249 251 253 253 249 243 242 241 240 239 238 239 236 227 230 233 228 226 224 227 232 234 235 236 235 236 239 242 243 246 251 257 260 262 264 267 268 271 274 278 281 284 288 289 292 293 288 290 289 280
299 302 303 301 299 298 298 295 293 293 290 283 272 264 261 259 258 256 255 254 252 251 248 246 244 243 243 241 240 239 240 242 243 246 247 249 250 252 253 249 242 241 242 240 239 239 240 236 229 232 235 232 230 227 228 231 233 235 236 236 236 239 243 245 248 250 254 259 261 262 264 265 267 269 271 274 276 278 281 283 282 279 286 280 262
301 304 304 300 297 295 294 293 293 294 292 288 279 272 267 262 261 260 260 259 258 257 256 253 249 247 246 244 242 241 242 244 245 247 249 250 250 251 252 250 244 241 242 241 240 240 241 237 231 233 236 234 233 231 231 232 233 236 237 238 237 239 242 245 249 249 251 258 261 262 262 263 263 263 265 267 269 270 271 268 265 266 268 254 226
286 289 290 294 296 292 290 291 292 295 294 289 284 278 271 266 264 263 262 261 260 260 259 258 256 252 249 246 245 244 245 246 248 249 251 252 252 252 252 251 247 242 242 243 242 241 241 240 234 235 238 236 234 233 234 234 235 236 238 239 239 239 242 244 247 247 246 252 258 260 261 263 262 263 264 264 267 267 264 258 257 253 237 231 212
266 266 270 279 290 292 292 292 291 292 292 290 288 282 275 270 267 264 262 262 262 261 261 261 260 258 254 250 248 247 248 249 250 251 252 253 254 254 252 252 249 245 243 243 243 241 241 241 238 237 240 239 236 234 236 236 236 237 238 240 240 240 241 243 245 246 245 246 253 257 259 263 264 265 265 265 268 267 264 257 251 240 220 223 211
260 260 262 263 273 292 299 296 290 287 288 289 288 285 280 275 269 265 262 261 261 260 261 262 262 263 260 255 252 251 250 250 252 253 253 253 255 255 254 253 251 246 244 245 245 243 242 241 239 236 238 238 235 235 237 238 237 238 238 240 240 241 242 243 245 246 245 247 251 255 258 263 266 267 267 267 267 265 264 256 248 245 231 221 208
251 257 260 262 266 276 292 299 290 282 285 287 288 287 283 277 271 267 264 261 259 258 259 261 263 264 263 260 259 257 253 253 255 255 253 253 255 256 256 256 255 248 244 246 247 247 244 242 240 236 235 235 234 234 236 238 237 237 238 240 241 242 243 245 247 248 248 250 253 257 260 264 267 268 268 266 265 263 261 257 255 256 241 220 206
268 270 268 269 269 263 267 296 293 284 287 288 289 290 285 279 272 267 264 261 259 258 258 259 261 261 261 261 261 259 258 259 259 257 255 254 255 256 258 259 260 253 246 247 249 250 248 245 243 238 236 237 236 236 238 239 238 239 239 240 242 242 244 246 248 250 252 254 255 259 262 265 268 267 268 265 264 262 259 259 256 248 237 224 217
277 281 283 283 273 258 246 271 291 282 283 283 284 287 284 278 272 267 263 260 259 258 258 257 257 258 258 259 260 260 260 262 262 260 257 256 257 258 259 262 264 258 249 248 251 252 252 248 245 241 239 239 239 238 239 240 240 240 241 242 243 243 246 247 248 250 253 256 256 258 261 263 265 266 267 265 263 262 259 257 246 235 231 230 228
282 283 285 283 273 255 236 224 235 247 253 257 265 271 271 268 265 263 260 258 257 257 257 257 255 255 255 256 258 259 259 260 260 259 258 257 258 259 260 263 266 261 254 252 253 254 255 252 248 244 241 240 241 241 240 240 240 240 241 242 243 245 247 248 248 249 252 255 256 257 259 260 264 266 267 266 264 262 259 254 242 233 229 229 232
293 295 288 273 263 252 240 229 219 222 228 224 231 246 254 256 255 255 255 253 253 255 256 256 255 254 254 255 256 257 258 258 258 259 259 258 259 260 262 264 265 262 260 259 258 257 257 255 252 248 244 241 242 243 242 241 241 240 241 242 244 245 247 248 248 250 251 254 255 256 257 257 262 267 269 267 265 262 258 252 241 234 229 226 229
322 319 303 268 252 249 246 245 239 234 232 216 207 217 234 244 247 248 248 246 245 248 251 252 254 255 256 256 255 256 257 258 259 260 260 260 260 261 263 264 264 263 264 264 262 260 257 256 254 251 248 243 242 243 244 244 243 243 242 243 244 245 246 248 249 250 251 253 255 256 257 258 262 266 267 266 264 262 258 252 242 235 231 228 229
51 55 74 224 230 243 248 252 249 237 225 204 192 196 207 218 228 236 240 241 240 242 246 247 251 253 254 255 255 256 256 258 260 261 262 262 262 262 263 264 264 263 264 264 262 260 258 257 256 254 251 247 244 244 244 244 244 244 243 242 244 244 246 248 249 250 251 254 255 256 257 261 264 265 265 265 264 263 259 254 246 238 235 233 233
69 82 102 141 176 198 234 238 217 201 198 189 181 179 183 189 199 209 217 226 232 236 241 245 248 251 253 255 255 256 257 259 260 262 263 263 264 264 265 265 265 264 264 263 262 262 261 260 259 257 253 249 245 242 240 241 242 242 242 242 243 244 246 247 248 249 251 253 254 254 257 259 263 263 263 264 264 264 261 255 248 242 237 235 233
70 70 73 76 79 77 54 60 111 130 145 143 134 131 129 125 145 172 189 206 217 223 230 237 244 248 252 254 256 257 257 258 259 261 263 264 265 266 267 267 266 266 265 264 265 265 264 263 261 258 254 251 247 243 240 238 238 238 239 240 243 245 245 245 246 249 250 251 252 252 255 257 259 261 261 262 262 262 260 255 249 243 240 237 235
74 72 71 70 67 66 60 55 65 62 49 54 58 71 78 77 74 73 76 78 143 208 218 225 235 241 247 252 254 257 257 258 260 261 263 265 266 267 268 268 267 267 267 266 265 264 263 262 260 257 255 252 249 246 242 238 237 238 239 239 240 242 244 245 247 248 248 249 250 251 252 255 256 257 258 259 260 259 257 255 250 246 243 240 238
76 75 74 74 73 71 67 65 67 65 58 50 45 45 49 67 87 91 80 54 52 35 354 253 241 240 244 247 248 251 252 253 254 255 257 260 263 265 266 267 267 267 267 266 265 263 263 262 261 259 257 253 248 245 244 242 240 239 237 236 238 240 243 245 246 247 248 249 250 250 251 254 255 255 255 256 257 257 257 256 252 247 245 243 240
74 72 72 71 71 70 68 68 68 67 65 61 58 57 55 56 58 77 92 86 77 63 44 30 9 359 281 265 257 252 249 248 247 246 246 248 251 256 260 263 264 265 266 266 265 265 265 264 263 262 259 254 249 247 245 243 241 239 234 230 233 237 240 244 246 245 246 248 249 249 251 253 254 254 254 254 255 256 257 257 254 249 246 243 240
73 70 70 69 69 69 68 68 67 66 66 65 65 66 67 67 66 65 63 57 50 43 39 26 12 7 1 351 332 302 278 264 253 247 244 242 243 244 249 254 257 261 263 264 265 266 266 266 265 264 262 258 255 253 249 244 244 243 239 233 230 233 239 244 246 245 245 246 247 248 249 251 252 253 252 252 253 253 253 254 253 250 247 244 240
74 72 72 71 71 71 69 69 68 67 66 66 66 66 67 68 68 68 64 57 47 39 35 25 14 8 9 14 13 3 344 320 290 267 253 244 241 239 241 245 249 254 257 261 264 264 264 265 266 265 263 263 260 255 251 249 248 245 242 240 240 242 246 246 243 241 243 244 245 246 247 249 250 251 251 250 250 250 250 250 249 248 247 246 243
76 75 73 71 70 70 69 68 67 66 65 65 63 62 62 61 62 63 63 60 55 50 43 35 30 26 26 27 25 27 25 15 5 344 300 262 248 239 238 240 242 247 251 256 260 261 263 264 266 266 265 265 261 255 253 253 250 246 244 244 244 244 247 247 243 241 242 243 244 245 246 247 249 249 250 249 248 248 248 247 245 245 246 247 245
75 73 70 67 65 63 63 63 62 62 62 61 60 58 57 56 56 56 57 57 55 54 50 44 41 39 39 38 33 32 33 30 23 13 4 344 305 263 248 243 241 244 247 251 255 258 260 261 263 264 265 264 261 258 256 254 252 251 251 249 246 243 243 245 247 247 247 248 249 247 246 247 247 248 248 248 247 247 247 245 244 244 246 247 246
72 69 66 63 60 57 56 55 55 55 56 56 55 55 54 53 53 52 52 53 52 51 49 45 44 41 38 37 34 31 30 31 26 17 9 1 350 332 299 267 253 247 247 251 253 255 256 257 259 261 262 262 262 260 258 256 255 255 255 253 251 247 243 243 245 247 248 249 250 249 249 246 245 248 249 249 249 249 246 243 243 243 245 246 247
71 67 64 60 57 55 51 49 50 51 51 50 48 49 50 48 49 49 49 50 50 48 46 43 41 38 35 32 28 23 19 18 18 14 6 358 353 345 334 315 292 266 254 252 252 253 254 256 257 259 261 262 262 261 259 258 257 257 256 255 254 251 246 243 242 243 245 246 247 250 252 250 250 255 255 254 255 252 247 243 242 243 244 246 247
71 68 64 59 56 53 49 48 51 50 48 46 43 44 44 42 43 43 43 45 45 43 41 41 39 37 34 31 27 21 13 6 3 1 357 353 348 341 334 327 318 300 280 264 256 254 252 254 256 257 259 260 260 261 260 259 258 257 256 254 254 253 251 249 247 246 247 247 248 249 251 253 255 258 259 259 256 251 247 245 244 243 243 245 247